TITAN 3C TRANSTAGE DEB, 26049

Orbit data source: Space-Track

TITAN 3C TRANSTAGE DEB, 26049 is space debris in HEO originally from a launch on Tue, 21 Dec 1965 UTC launched from the Air Force Eastern Test Range (AFETR). Debris objects in space refer to the collection of defunct objects orbiting the Earth. Examples of debris include non-operational satellites, rocket bodies, and fragments generated from explosions, collisions, or faulty payload assembly.

Loading next visibility...
Identifier
26049, 1965-108AH
Orbit
HEO
Country
Flag of USUS
Related business
Manufacturer
Unknown
Mission
Spacecraft
Bus & Motor
Unknown
Mass
Unknown
Launch date (UTC)
1965-12-21 (60 years ago)
Launch vehicle
Unknown
Launch site
Air Force Eastern Test Range (AFETR)
Object type
Payload
Rocket body
Debris
Shape & HBR
Unknown
Radar Cross Section
Small (<0.1 m²)

Expand to show TLE details & history
Last TLE update: 1 day ago

TLE from 1 day ago
0 TITAN 3C TRANSTAGE DEB
1 26049U 65108AH  25242.00350596  .00029654  00000-0  25458-1 0  9995
2 26049  27.2062 188.3307 4807066 354.4743   1.6732  5.76580980 93192
Epoch: 2025-08-30T00:05Z
TLE epoch observation values (Epoch: 2025-08-30T00:05:02.914Z)
Latitude
-0.00009°
Longitude
-151.38411°
Altitude
452.18 km
Speed
9.294 km/s
True Right ascension
12h 33m 17s
True Declination
0° 00' 00"
Sunlit
Object was in daylight at epoch
Visualization orbit readout
Latitude
Unknown
Longitude
Unknown
Altitude
Unknown
Speed
Unknown
Apparent Right ascension
Unknown
Apparent Declination
Unknown
Sunlit
N/A
Visualization observer readout
Local Sidereal Time
16:05:09
Azimuth
Unknown
Elevation
Unknown
Doppler factor
Unknown
Orbital elements
Apogee altitude
13,078.917 km
Perigee altitude
445.578 km
Semi-major axis
13,140.385 km
Eccentricity
0.48071
Inclination
27.2062°
RAAN
188.3307°
Arg. of periapsis
354.4743°
True anomaly
5.43551°
Mean anomaly
1.6732°
Eccentric anomaly
3.2205°
Mean motion
1.44089 °/min
Orbital period
249.85 mins
BSTAR
0.025458
Loading maneuver chart data...
Computing Atmospheric mass density...

Documentation

Showing up to 5 results
|